DB0TGO-14 Weather Reports


time (UTC)temp
C
wind
direction
speed
KPH
gust
KPH
rain 1hr
cm
rain 24hr
cm
rain mn
cm
humidity
%
barometer
mb
20260507153448 11 90 3.2 9.7 0.00 0.00 0.00 76 1016.9
20260507153254 11 45 3.2 8.0 0.00 0.00 0.00 74 1016.8
20260507153100 11 68 3.2 6.4 0.00 0.00 0.00 76 1016.9
20260507152900 11 68 3.2 8.0 0.00 0.00 0.00 75 1016.8
20260507152848 11 68 3.2 8.0 0.00 0.00 0.00 76 1016.8
20260507152704 11 68 3.2 8.0 0.00 0.00 0.00 76 1016.8
20260507152520 11 68 3.2 8.0 0.00 0.00 0.00 75 1016.8
20260507152330 11 90 3.2 4.8 0.00 0.00 0.00 76 1016.7
20260507152148 11 90 3.2 6.4 0.00 0.00 0.00 76 1016.7
20260507152005 11 90 3.2 8.0 0.00 0.00 0.00 76 1016.7
20260507151820 11 90 3.2 8.0 0.00 0.00 0.00 76 1016.8
20260507151629 11 112 3.2 8.0 0.00 0.00 0.00 76 1016.7
20260507151440 11 158 3.2 8.0 0.00 0.00 0.00 75 1016.7
20260507151240 11 90 3.2 8.0 0.00 0.00 0.00 76 1016.7
20260507151052 11 90 3.2 4.8 0.00 0.00 0.00 76 1016.7
20260507151003 11 90 3.2 4.8 0.00 0.00 0.00 76 1016.7
20260507150905 11 90 3.2 4.8 0.00 0.00 0.00 76 1016.7
20260507150715 11 90 3.2 9.7 0.00 0.00 0.00 77 1016.6
20260507150519 11 90 3.2 9.7 0.00 0.00 0.00 77 1016.7
20260507150333 11 90 3.2 9.7 0.00 0.00 0.00 76 1016.5
20260507150145 11 112 3.2 6.4 0.00 0.00 0.00 77 1016.6
20260507145955 11 112 4.8 8.0 0.00 0.00 0.00 76 1016.5
20260507145800 11 112 4.8 8.0 0.00 0.00 0.00 76 1016.6
20260507145602 11 158 4.8 8.0 0.00 0.00 0.00 76 1016.6
20260507145425 11 68 4.8 8.0 0.00 0.00 0.00 77 1016.5
20260507145223 11 68 4.8 8.0 0.00 0.00 0.00 77 1016.5
20260507145055 11 90 4.8 9.7 0.00 0.00 0.00 76 1016.4
20260507144908 11 90 4.8 8.0 0.00 0.00 0.00 76 1016.5
20260507144710 11 68 3.2 8.0 0.00 0.00 0.00 76 1016.5
20260507144535 11 112 3.2 8.0 0.00 0.00 0.00 75 1016.5
20260507144341 11 45 3.2 8.0 0.00 0.00 0.00 76 1016.5
20260507144148 11 90 3.2 8.0 0.00 0.00 0.00 74 1016.5
20260507144005 11 68 1.6 8.0 0.00 0.00 0.00 74 1016.5
20260507143815 11 45 1.6 4.8 0.00 0.00 0.00 74 1016.5
20260507143634 11 45 1.6 4.8 0.00 0.00 0.00 74 1016.5
20260507143438 11 45 1.6 4.8 0.00 0.00 0.00 74 1016.4
20260507143253 11 45 1.6 4.8 0.00 0.00 0.00 74 1016.5
20260507143109 11 45 1.6 4.8 0.00 0.00 0.00 74 1016.4
20260507142918 11 45 1.6 8.0 0.00 0.00 0.00 73 1016.4
20260507142733 11 45 1.6 8.0 0.00 0.00 0.00 74 1016.4
20260507142534 11 22 1.6 3.2 0.00 0.00 0.00 74 1016.4
20260507142340 11 22 1.6 6.4 0.00 0.00 0.00 73 1016.4
20260507142149 11 22 3.2 8.0 0.00 0.00 0.00 75 1016.4
20260507141954 11 22 3.2 8.0 0.00 0.00 0.00 74 1016.4
20260507141855 11 22 3.2 8.0 0.00 0.00 0.00 74 1016.4
20260507141805 11 22 1.6 8.0 0.00 0.00 0.00 74 1016.5
20260507141608 11 0 1.6 3.2 0.00 0.00 0.00 74 1016.5
20260507141425 11 0 1.6 3.2 0.00 0.00 0.00 75 1016.5
20260507141231 11 338 1.6 3.2 0.00 0.00 0.00 76 1016.4
20260507141055 11 338 1.6 6.4 0.00 0.00 0.00 75 1016.4
20260507140855 11 338 1.6 6.4 0.00 0.00 0.00 76 1016.4
20260507140708 11 338 1.6 6.4 0.00 0.00 0.00 76 1016.4
20260507140519 11 338 1.6 3.2 0.00 0.00 0.00 76 1016.4
20260507140325 11 338 1.6 3.2 0.00 0.00 0.00 75 1016.4
20260507140139 11 338 1.6 3.2 0.00 0.00 0.00 75 1016.4
20260507140000 11 338 1.6 3.2 0.00 0.00 0.00 75 1016.4
20260507135820 11 45 1.6 3.2 0.00 0.00 0.00 75 1016.3
20260507135620 11 45 1.6 4.8 0.00 0.00 0.00 76 1016.3
20260507135435 11 45 3.2 4.8 0.00 0.00 0.00 76 1016.3
20260507135245 11 45 3.2 4.8 0.00 0.00 0.00 76 1016.3
20260507135105 11 45 3.2 9.7 0.00 0.00 0.00 75 1016.3
20260507134905 11 45 3.2 9.7 0.00 0.00 0.00 75 1016.2
20260507134710 11 22 3.2 4.8 0.00 0.00 0.00 74 1016.2
20260507134602 11 22 3.2 4.8 0.00 0.00 0.00 75 1016.2
20260507134515 11 68 3.2 4.8 0.00 0.00 0.00 76 1016.2
20260507134314 11 68 4.8 8.0 0.00 0.00 0.00 76 1016.2
20260507134125 11 45 4.8 8.0 0.00 0.00 0.00 76 1016.2
20260507133925 11 22 4.8 9.7 0.00 0.00 0.00 74 1016.2
20260507133744 11 45 4.8 9.7 0.00 0.00 0.00 74 1016.2
20260507133606 11 22 6.4 9.7 0.00 0.00 0.00 74 1016.2
20260507133409 11 45 4.8 8.0 0.00 0.00 0.00 75 1016.1
20260507133210 11 45 6.4 9.7 0.00 0.00 0.00 75 1016.3
20260507133011 11 68 4.8 9.7 0.00 0.00 0.00 74 1016.2
20260507132906 11 68 4.8 9.7 0.00 0.00 0.00 74 1016.2
20260507132820 11 68 3.2 9.7 0.00 0.00 0.00 73 1016.2
20260507132623 11 90 3.2 9.7 0.00 0.00 0.00 73 1016.2
20260507132444 11 90 3.2 8.0 0.00 0.00 0.00 72 1016.2
20260507132245 11 45 3.2 9.7 0.00 0.00 0.00 73 1016.2
20260507132108 11 68 3.2 9.7 0.00 0.00 0.00 73 1016.1
20260507131925 11 90 3.2 9.7 0.00 0.00 0.00 74 1016.2
20260507131735 11 90 3.2 9.7 0.00 0.00 0.00 74 1016.1
20260507131544 11 248 4.8 4.8 0.00 0.00 0.00 74 1016.1
20260507131409 11 68 4.8 11.3 0.00 0.00 0.00 75 1016.2
20260507131302 11 68 4.8 11.3 0.00 0.00 0.00 75 1016.2
20260507131220 11 68 4.8 11.3 0.00 0.00 0.00 75 1016.2
20260507131045 11 90 4.8 11.3 0.00 0.00 0.00 76 1016.1
20260507130907 11 0 6.4 11.3 0.00 0.00 0.00 75 1016.2
20260507130715 11 22 6.4 9.7 0.00 0.05 0.00 75 1016.1
20260507130535 11 45 6.4 9.7 0.00 0.05 0.00 75 1016.2
20260507130353 11 45 4.8 8.0 0.00 0.05 0.00 74 1016.1
20260507130215 11 45 4.8 9.7 0.00 0.05 0.00 75 1016.1
20260507130027 11 45 4.8 9.7 0.00 0.05 0.00 75 1016.1
20260507125840 11 68 3.2 9.7 0.00 0.05 0.00 76 1016.1
20260507125650 11 45 3.2 6.4 0.00 0.05 0.00 74 1016.2
20260507125506 11 22 4.8 9.7 0.00 0.05 0.00 75 1016.1
20260507125407 11 45 4.8 9.7 0.00 0.05 0.00 76 1016.0
20260507125328 10 45 4.8 9.7 0.00 0.05 0.00 76 1016.0
20260507125148 10 45 6.4 11.3 0.00 0.05 0.00 76 1016.0
20260507124955 10 68 6.4 11.3 0.00 0.05 0.00 78 1016.1
20260507124803 11 68 8.0 12.9 0.00 0.05 0.00 77 1016.0
20260507124624 11 68 6.4 12.9 0.00 0.05 0.00 76 1016.0
20260507124440 11 45 6.4 12.9 0.00 0.05 0.00 76 1016.0
20260507124248 11 90 6.4 12.9 0.00 0.05 0.00 76 1016.0
20260507124103 11 68 4.8 11.3 0.00 0.05 0.00 77 1016.0
20260507123905 11 68 4.8 11.3 0.00 0.05 0.00 75 1016.0
20260507123720 11 90 3.2 9.7 0.00 0.05 0.00 75 1016.0
20260507123606 11 22 3.2 6.4 0.00 0.05 0.00 75 1016.0
20260507123525 11 22 3.2 6.4 0.00 0.05 0.00 76 1016.0
20260507123327 11 22 6.4 14.5 0.00 0.05 0.00 76 1016.0
20260507123149 11 22 6.4 14.5 0.00 0.05 0.00 75 1016.0
20260507123004 11 90 6.4 16.1 0.00 0.05 0.00 76 1016.0
20260507122820 10 22 6.4 16.1 0.00 0.05 0.00 76 1016.0
20260507122644 10 90 6.4 16.1 0.00 0.05 0.00 76 1015.9
20260507122445 10 68 4.8 14.5 0.00 0.05 0.00 76 1016.0
20260507122250 10 45 4.8 12.9 0.00 0.05 0.00 76 1016.0
20260507122100 10 45 6.4 12.9 0.00 0.05 0.00 77 1016.0
20260507122033 10 68 6.4 9.7 0.00 0.05 0.00 77 1015.9
20260507121918 10 68 8.0 9.7 0.00 0.05 0.00 76 1016.0
20260507121725 10 68 8.0 12.9 0.00 0.05 0.00 76 1015.9
20260507121545 10 90 8.0 14.5 0.00 0.05 0.00 78 1016.0
20260507121353 10 45 8.0 14.5 0.00 0.05 0.00 77 1016.0
20260507121200 10 90 8.0 14.5 0.00 0.05 0.00 77 1016.0
20260507121007 10 68 6.4 16.1 0.00 0.05 0.00 76 1015.9
20260507120815 10 45 4.8 16.1 0.00 0.05 0.00 76 1015.9
20260507120619 10 68 4.8 16.1 0.00 0.05 0.00 77 1015.9
20260507120445 10 68 4.8 8.0 0.00 0.05 0.00 78 1016.0
20260507120423 10 68 4.8 8.0 0.00 0.05 0.00 77 1015.9
20260507120224 10 68 4.8 11.3 0.00 0.05 0.00 77 1015.9
20260507120040 10 68 6.4 11.3 0.00 0.05 0.00 77 1015.9
20260507115843 10 45 6.4 11.3 0.00 0.05 0.00 77 1015.9
20260507115700 10 90 6.4 12.9 0.00 0.05 0.00 77 1015.9
20260507115515 10 68 6.4 12.9 0.00 0.05 0.00 77 1015.9
20260507115315 10 68 8.0 12.9 0.00 0.05 0.00 77 1016.0
20260507115128 10 90 8.0 12.9 0.00 0.05 0.00 77 1015.9
20260507114935 10 68 6.4 12.9 0.00 0.05 0.00 77 1015.9
20260507114745 10 68 8.0 12.9 0.00 0.05 0.00 77 1015.9
20260507114549 10 45 8.0 11.3 0.00 0.05 0.00 77 1015.9
20260507114356 10 45 8.0 14.5 0.00 0.05 0.00 76 1015.9
20260507114200 10 90 6.4 19.3 0.00 0.05 0.00 76 1015.8
20260507114008 10 90 6.4 19.3 0.00 0.05 0.00 76 1015.9
20260507113820 10 45 6.4 16.1 0.00 0.05 0.00 77 1015.9
20260507113645 10 90 6.4 12.9 0.00 0.05 0.00 78 1015.8
20260507113500 10 68 6.4 12.9 0.00 0.05 0.00 76 1015.8
20260507113320 10 68 6.4 9.7 0.00 0.05 0.00 77 1015.8
20260507113132 10 45 6.4 19.3 0.00 0.05 0.00 78 1015.9
20260507112950 10 90 8.0 19.3 0.00 0.05 0.00 78 1015.8
20260507112808 10 22 8.0 19.3 0.00 0.05 0.00 78 1015.8
20260507112730 10 90 8.0 14.5 0.00 0.05 0.00 78 1015.8
20260507112615 10 112 8.0 14.5 0.00 0.05 0.00 79 1015.8
20260507112435 10 45 6.4 12.9 0.00 0.05 0.00 78 1015.8
20260507112250 10 68 6.4 16.1 0.00 0.05 0.00 78 1015.8
20260507112105 10 68 6.4 20.9 0.00 0.05 0.00 78 1015.8
20260507111905 10 112 6.4 20.9 0.00 0.05 0.00 78 1015.7
20260507111712 10 45 8.0 20.9 0.00 0.08 0.00 79 1015.8
20260507111535 9 22 8.0 16.1 0.00 0.08 0.00 79 1015.8
20260507111333 9 45 8.0 17.7 0.00 0.08 0.00 79 1015.8
20260507111155 9 22 8.0 17.7 0.00 0.08 0.00 79 1015.7
20260507111132 9 112 8.0 17.7 0.00 0.08 0.00 79 1015.7
20260507111015 9 22 8.0 17.7 0.00 0.08 0.00 80 1015.8
20260507110829 9 90 6.4 16.1 0.00 0.08 0.00 80 1015.7
20260507110639 9 22 6.4 9.7 0.00 0.08 0.00 80 1015.8
20260507110440 9 68 6.4 11.3 0.00 0.08 0.00 81 1015.8
20260507110300 9 45 6.4 12.9 0.00 0.08 0.00 81 1015.8
20260507110100 9 45 6.4 12.9 0.00 0.08 0.00 81 1015.7
20260507105925 9 45 8.0 14.5 0.00 0.08 0.00 81 1015.7
20260507105746 9 45 8.0 16.1 0.00 0.08 0.00 81 1015.8
20260507105546 9 68 6.4 16.1 0.00 0.08 0.00 81 1015.8
20260507105455 9 0 6.4 16.1 0.00 0.08 0.00 81 1015.7
20260507105348 9 68 6.4 16.1 0.00 0.08 0.00 81 1015.8
20260507105200 9 338 6.4 12.9 0.00 0.08 0.00 81 1015.8
20260507105002 9 22 6.4 12.9 0.00 0.08 0.00 82 1015.7
20260507104824 9 22 6.4 9.7 0.00 0.08 0.00 82 1015.7
20260507104629 9 68 4.8 9.7 0.00 0.08 0.00 82 1015.7
20260507104445 9 68 4.8 16.1 0.00 0.08 0.00 81 1015.6
20260507104249 9 112 4.8 16.1 0.00 0.08 0.00 82 1015.6
20260507104109 9 45 4.8 16.1 0.00 0.08 0.00 82 1015.7
20260507103925 8 45 4.8 9.7 0.00 0.08 0.00 83 1015.7
20260507103729 8 90 6.4 14.5 0.00 0.08 0.00 83 1015.7
20260507103603 8 90 6.4 14.5 0.00 0.08 0.00 83 1015.7
20260507103535 8 90 6.4 14.5 0.00 0.08 0.00 83 1015.7
20260507103347 8 68 4.8 14.5 0.00 0.13 0.00 82 1015.6
20260507103211 8 0 4.8 16.1 0.00 0.13 0.00 83 1015.7
20260507103036 8 22 4.8 16.1 0.00 0.13 0.00 83 1015.6
20260507102845 8 22 6.4 16.1 0.00 0.13 0.00 83 1015.6
20260507102645 8 0 4.8 9.7 0.00 0.13 0.00 83 1015.6
20260507102452 8 45 4.8 9.7 0.00 0.13 0.00 83 1015.6
20260507102258 8 22 4.8 14.5 0.00 0.15 0.00 83 1015.6
20260507102115 8 68 4.8 14.5 0.00 0.15 0.00 84 1015.6
20260507101935 8 22 4.8 9.7 0.00 0.15 0.00 84 1015.5
20260507101750 8 22 6.4 9.7 0.00 0.15 0.00 85 1015.6
20260507101706 8 45 6.4 9.7 0.00 0.15 0.00 85 1015.6
20260507101615 8 45 6.4 11.3 0.00 0.15 0.00 84 1015.6
20260507101415 8 22 6.4 16.1 0.00 0.15 0.00 85 1015.6
20260507101227 8 45 6.4 16.1 0.00 0.15 0.00 85 1015.5
20260507101042 8 45 6.4 16.1 0.00 0.20 0.00 85 1015.5
20260507100849 8 22 6.4 12.9 0.00 0.20 0.00 86 1015.5
20260507100700 8 90 6.4 11.3 0.00 0.20 0.00 86 1015.5
20260507100509 8 22 6.4 12.9 0.00 0.20 0.00 86 1015.4
20260507100315 8 68 6.4 12.9 0.00 0.20 0.00 86 1015.5
20260507100129 8 68 6.4 14.5 0.00 0.20 0.00 85 1015.4
20260507100032 8 90 4.8 14.5 0.00 0.23 0.00 86 1015.4
20260507095935 8 90 4.8 14.5 0.00 0.23 0.00 86 1015.4
20260507095735 8 68 4.8 14.5 0.00 0.23 0.00 86 1015.4
20260507095550 8 45 3.2 9.7 0.00 0.23 0.00 87 1015.3
20260507095409 8 45 4.8 8.0 0.00 0.28 0.00 87 1015.2
20260507095220 8 45 6.4 8.0 0.00 0.28 0.00 87 1015.2
20260507095040 8 68 6.4 8.0 0.00 0.28 0.00 87 1015.2
20260507094848 8 0 6.4 11.3 0.00 0.28 0.00 87 1015.2
20260507094705 8 22 6.4 12.9 0.00 0.28 0.00 88 1015.2
20260507094510 8 22 6.4 12.9 0.00 0.28 0.00 87 1015.1
20260507094327 8 22 4.8 12.9 0.00 0.33 0.00 87 1015.2
20260507094149 8 45 4.8 12.9 0.00 0.33 0.00 87 1015.1
20260507094006 8 45 3.2 8.0 0.00 0.33 0.00 88 1015.1
20260507093814 8 22 3.2 8.0 0.00 0.33 0.00 88 1015.0
20260507093629 8 45 3.2 8.0 0.00 0.36 0.00 88 1015.0
20260507093430 8 90 6.4 11.3 0.00 0.36 0.00 88 1015.0
20260507093249 8 22 6.4 11.3 0.00 0.41 0.00 88 1015.0
20260507093049 8 68 8.0 11.3 0.00 0.41 0.00 88 1015.0
20260507092905 8 45 8.0 14.5 0.00 0.41 0.00 88 1015.0
20260507092751 8 45 8.0 19.3 0.00 0.41 0.00 89 1015.0
20260507092709 8 68 8.0 19.3 0.00 0.43 0.00 88 1015.0
20260507092514 8 45 8.0 19.3 0.00 0.43 0.00 88 1015.0
20260507092334 8 0 8.0 19.3 0.00 0.43 0.00 88 1015.0
20260507092148 8 0 6.4 11.3 0.00 0.48 0.00 88 1014.9
20260507092010 8 22 6.4 11.3 0.00 0.48 0.00 88 1014.9
20260507091812 8 45 8.0 11.3 0.00 0.48 0.00 87 1014.8
20260507091620 8 45 8.0 11.3 0.00 0.48 0.00 87 1014.9
20260507091441 8 135 6.4 16.1 0.00 0.48 0.00 87 1014.8
20260507091255 8 0 6.4 16.1 0.00 0.48 0.00 88 1014.7
20260507091106 8 22 6.4 16.1 0.00 0.51 0.00 87 1014.8
20260507091021 8 22 6.4 14.5 0.00 0.51 0.00 86 1014.7
20260507090914 8 22 6.4 14.5 0.00 0.51 0.00 85 1014.6
20260507090720 8 338 6.4 11.3 0.00 0.51 0.00 84 1014.6
20260507090531 8 45 6.4 11.3 0.00 0.56 0.00 84 1014.6
20260507090344 8 22 6.4 11.3 0.00 0.56 0.00 84 1014.6
20260507090205 8 45 8.0 16.1 0.00 0.56 0.00 84 1014.6
20260507090026 8 45 8.0 16.1 0.00 0.64 0.00 84 1014.5
20260507085836 8 45 6.4 16.1 0.00 0.64 0.00 83 1014.6
20260507085645 8 248 6.4 11.3 0.00 0.64 0.00 83 1014.5
20260507085449 8 22 6.4 11.3 0.00 0.69 0.00 83 1014.5
20260507085426 8 45 6.4 11.3 0.00 0.69 0.00 83 1014.5
20260507085249 8 45 6.4 12.9 0.00 0.69 0.00 83 1014.4
20260507085109 8 22 4.8 12.9 0.00 0.69 0.00 84 1014.5
20260507084913 8 68 4.8 12.9 0.00 0.76 0.00 83 1014.5
20260507084739 8 68 4.8 11.3 0.00 0.76 0.00 83 1014.5
20260507084545 8 68 4.8 9.7 0.00 0.76 0.00 83 1014.5
20260507084353 8 22 6.4 11.3 0.00 0.89 0.00 82 1014.3
20260507084200 8 22 6.4 16.1 0.00 0.89 0.00 82 1014.4
20260507084020 8 315 6.4 16.1 0.00 0.89 0.00 83 1014.3
20260507083825 8 22 6.4 16.1 0.00 0.91 0.00 83 1014.3
20260507083812 8 315 6.4 16.1 0.00 0.91 0.00 83 1014.2
20260507083645 8 68 6.4 16.1 0.00 0.91 0.00 82 1014.3
20260507083455 8 22 4.8 14.5 0.00 0.99 0.00 83 1014.3
20260507083302 8 22 4.8 12.9 0.00 0.99 0.00 83 1014.3
20260507083111 8 90 6.4 12.9 0.00 0.99 0.00 84 1014.2
20260507082929 8 0 6.4 12.9 0.00 1.04 0.00 83 1014.2
20260507082749 8 68 6.4 12.9 0.00 1.04 0.00 84 1014.2
20260507082605 8 68 6.4 11.3 0.00 1.04 0.00 84 1014.2
20260507082420 8 45 6.4 11.3 0.00 1.12 0.00 84 1014.1
20260507082240 8 22 6.4 12.9 0.00 1.12 0.00 84 1014.2
20260507082048 8 315 4.8 17.7 0.00 1.12 0.00 85 1014.2
20260507081856 8 0 4.8 17.7 0.00 1.19 0.00 85 1014.1
20260507081704 8 225 3.2 17.7 0.00 1.19 0.00 85 1014.1
20260507081515 8 68 3.2 6.4 0.00 1.19 0.00 85 1014.0
20260507081340 8 68 4.8 11.3 0.00 1.27 0.00 85 1014.1
20260507081200 8 68 4.8 11.3 0.00 1.27 0.00 85 1014.0
20260507081009 8 90 6.4 11.3 0.00 1.27 0.00 85 1014.0
20260507080829 8 22 4.8 9.7 0.00 1.32 0.00 85 1014.0
20260507080636 8 90 6.4 9.7 0.00 1.32 0.00 85 1014.0
20260507080453 8 68 6.4 8.0 0.00 1.32 0.00 85 1014.0
20260507080346 8 292 6.4 8.0 0.00 1.37 0.00 86 1013.9
20260507080255 8 22 6.4 8.0 0.00 1.37 0.00 86 1014.0
20260507080105 8 68 6.4 11.3 0.00 1.37 0.00 85 1014.0
20260507075925 8 90 6.4 11.3 0.00 1.37 0.00 85 1013.9
20260507075748 8 45 6.4 16.1 0.00 1.47 0.00 85 1014.0
20260507075600 8 22 6.4 8.0 0.00 1.47 0.00 86 1013.9
20260507075400 8 68 6.4 12.9 0.00 1.47 0.00 86 1013.9
20260507075205 8 45 8.0 12.9 0.00 1.52 0.00 86 1013.9
20260507075005 8 68 6.4 12.9 0.00 1.52 0.00 86 1013.9
20260507074807 8 68 6.4 16.1 0.00 1.52 0.00 86 1013.8
20260507074630 8 0 6.4 16.1 0.00 1.52 0.00 85 1013.8
20260507074455 8 0 6.4 16.1 0.00 1.52 0.00 85 1013.8
20260507074315 8 315 6.4 12.9 0.00 1.52 0.00 85 1013.8
20260507074125 8 0 6.4 12.9 0.00 1.55 0.00 85 1013.8
20260507073937 8 45 8.0 20.9 0.00 1.55 0.00 85 1013.7
20260507073800 8 90 6.4 20.9 0.00 1.55 0.00 85 1013.6
20260507073615 8 45 8.0 20.9 0.00 1.55 0.00 85 1013.7
20260507073423 8 68 8.0 20.9 0.00 1.55 0.00 85 1013.8
20260507073231 8 90 8.0 14.5 0.00 1.55 0.00 85 1013.7
20260507073050 8 90 8.0 12.9 0.00 1.55 0.00 85 1013.7
20260507073038 8 90 8.0 11.3 0.00 1.55 0.00 85 1013.7
20260507072855 8 45 8.0 16.1 0.00 1.55 0.00 85 1013.6
20260507072714 8 90 9.7 16.1 0.00 1.55 0.00 85 1013.7
20260507072515 8 45 9.7 16.1 0.00 1.55 0.00 85 1013.6
20260507072315 8 68 9.7 17.7 0.00 1.55 0.00 84 1013.5
20260507072125 8 315 9.7 17.7 0.00 1.55 0.00 85 1013.6
20260507071948 8 22 9.7 17.7 0.00 1.55 0.00 84 1013.5
20260507071758 8 68 9.7 19.3 0.00 1.55 0.00 84 1013.5
20260507071605 8 22 9.7 19.3 0.00 1.55 0.00 84 1013.5
20260507071415 8 112 9.7 17.7 0.00 1.55 0.00 84 1013.5
20260507071236 8 270 8.0 16.1 0.00 1.55 0.00 85 1013.4
20260507071218 8 270 8.0 16.1 0.00 1.55 0.00 84 1013.6
20260507071033 8 45 9.7 20.9 0.00 1.60 0.00 85 1013.4
20260507070847 8 90 8.0 20.9 0.00 1.60 0.00 85 1013.4
20260507070655 8 315 9.7 20.9 0.00 1.60 0.00 85 1013.3
20260507070455 8 90 9.7 16.1 0.00 1.60 0.00 85 1013.4
20260507070255 8 68 8.0 12.9 0.00 1.60 0.00 85 1013.3
20260507070109 8 90 8.0 12.9 0.00 1.60 0.00 85 1013.4
20260507065909 8 338 8.0 11.3 0.00 1.60 0.00 86 1013.3
20260507065725 8 338 8.0 19.3 0.00 1.60 0.00 86 1013.4
20260507065532 8 45 8.0 19.3 0.00 1.60 0.00 86 1013.3
20260507065349 8 68 8.0 19.3 0.00 1.60 0.00 86 1013.3
20260507065205 8 22 8.0 17.7 0.00 1.60 0.00 85 1013.3
20260507065018 8 22 6.4 14.5 0.00 1.60 0.00 85 1013.2
20260507064830 8 22 6.4 11.3 0.00 1.60 0.00 85 1013.3
20260507064645 8 22 6.4 8.0 0.00 1.60 0.00 85 1013.3
20260507064445 8 45 6.4 19.3 0.00 1.60 0.00 86 1013.2
20260507064247 8 45 6.4 19.3 0.00 1.60 0.00 86 1013.3
20260507064100 8 0 6.4 19.3 0.00 1.60 0.00 86 1013.2
20260507063920 8 22 6.4 14.5 0.00 1.65 0.00 86 1013.2
20260507063837 8 292 6.4 14.5 0.00 1.65 0.00 86 1013.2
20260507063728 8 22 6.4 14.5 0.00 1.65 0.00 86 1013.2
20260507063535 8 22 4.8 8.0 0.00 1.65 0.00 86 1013.3
20260507063347 8 22 4.8 9.7 0.00 1.65 0.00 86 1013.4
20260507063200 7 22 4.8 9.7 0.00 1.65 0.00 86 1013.2
20260507063001 7 68 4.8 9.7 0.00 1.65 0.00 86 1013.3
20260507062825 7 22 4.8 8.0 0.00 1.65 0.00 87 1013.3
20260507062637 7 90 6.4 8.0 0.00 1.65 0.00 86 1013.2
20260507062440 7 22 6.4 11.3 0.00 1.65 0.00 87 1013.1
20260507062300 7 68 6.4 11.3 0.00 1.65 0.00 87 1013.2
20260507062151 7 68 8.0 16.1 0.00 1.65 0.00 87 1013.2
20260507062113 7 292 6.4 16.1 0.00 1.65 0.00 87 1013.2
20260507061937 7 22 6.4 16.1 0.00 1.65 0.00 87 1013.2
20260507061754 7 68 6.4 16.1 0.00 1.65 0.00 87 1013.1
20260507061607 7 45 6.4 14.5 0.00 1.65 0.00 88 1013.2
20260507061428 7 45 6.4 14.5 0.00 1.65 0.00 88 1013.1
20260507061234 7 45 6.4 14.5 0.00 1.68 0.00 88 1013.0
20260507061048 7 45 6.4 17.7 0.00 1.68 0.00 88 1013.0
20260507060855 7 22 6.4 17.7 0.00 1.68 0.00 88 1013.0
20260507060714 7 45 6.4 17.7 0.00 1.68 0.00 88 1012.9
20260507060525 7 68 6.4 16.1 0.00 1.68 0.00 88 1012.9
20260507060345 7 338 6.4 16.1 0.00 1.68 0.00 88 1012.9
20260507060255 7 45 6.4 16.1 0.00 1.73 0.00 88 1012.9
20260507060155 7 22 6.4 16.1 0.00 1.73 0.00 88 1012.9
20260507055955 7 90 6.4 9.7 0.00 1.73 0.00 88 1012.9
20260507055812 7 22 6.4 17.7 0.00 1.73 0.00 88 1012.9
20260507055618 7 0 8.0 17.7 0.00 1.73 0.00 88 1012.9
20260507055435 7 45 9.7 17.7 0.00 1.73 0.00 87 1012.8
20260507055250 7 68 8.0 17.7 0.00 1.73 0.00 88 1012.9
20260507055105 7 68 8.0 20.9 0.00 1.73 0.00 88 1012.8
20260507054909 7 45 8.0 20.9 0.00 1.73 0.00 88 1012.8
20260507054715 7 68 6.4 20.9 0.00 1.73 0.00 88 1012.9
20260507054648 7 270 6.4 20.9 0.00 1.73 0.00 88 1012.9
20260507054521 7 0 6.4 16.1 0.00 1.73 0.00 88 1012.8
20260507054336 7 45 6.4 11.3 0.00 1.73 0.00 88 1012.8
20260507054150 7 68 6.4 16.1 0.00 1.73 0.00 88 1012.8
20260507054008 7 90 6.4 8.0 0.00 1.75 0.00 89 1012.8
20260507053820 7 68 6.4 16.1 0.00 1.75 0.00 89 1012.8
20260507053628 7 90 8.0 16.1 0.00 1.75 0.00 89 1012.7
20260507053448 7 0 6.4 14.5 0.00 1.75 0.00 89 1012.6
20260507053304 7 22 6.4 14.5 0.00 1.75 0.00 89 1012.8
20260507053105 7 90 8.0 17.7 0.00 1.75 0.00 89 1012.7
20260507053042 7 45 8.0 17.7 0.00 1.75 0.00 89 1012.6
20260507052920 7 68 8.0 17.7 0.00 1.80 0.00 89 1012.6
20260507052740 7 45 8.0 17.7 0.00 1.80 0.00 89 1012.6
20260507052600 7 338 8.0 16.1 0.00 1.80 0.00 89 1012.6
20260507052418 7 45 8.0 16.1 0.00 1.80 0.00 89 1012.5
20260507052220 7 135 8.0 17.7 0.00 1.80 0.00 90 1012.5
20260507052040 7 68 8.0 17.7 0.00 1.80 0.00 90 1012.5
20260507051900 7 68 8.0 17.7 0.00 1.80 0.00 89 1012.5
20260507051715 7 68 6.4 14.5 0.00 1.80 0.00 89 1012.5
20260507051520 7 22 6.4 14.5 0.00 1.80 0.00 89 1012.6
20260507051325 7 90 4.8 14.5 0.00 1.83 0.00 90 1012.4
20260507051215 7 22 4.8 11.3 0.00 1.83 0.00 89 1012.6
20260507051137 7 90 4.8 9.7 0.00 1.83 0.00 90 1012.6
20260507050940 7 45 6.4 9.7 0.00 1.83 0.00 89 1012.4
20260507050745 7 45 6.4 14.5 0.00 1.83 0.00 89 1012.4
20260507050600 7 45 6.4 14.5 0.00 1.83 0.00 90 1012.5
20260507050415 7 90 6.4 14.5 0.00 1.83 0.00 89 1012.4
20260507050229 7 22 6.4 12.9 0.00 1.88 0.00 89 1012.6
20260507050035 7 22 4.8 12.9 0.00 1.88 0.00 89 1012.4
20260507045845 7 68 4.8 11.3 0.00 1.88 0.00 89 1012.4
20260507045645 7 22 6.4 16.1 0.00 1.93 0.00 89 1012.4
20260507045532 7 45 6.4 16.1 0.00 1.93 0.00 89 1012.4
20260507045504 7 45 6.4 16.1 0.00 1.93 0.00 89 1012.4
20260507045325 7 22 6.4 16.1 0.00 1.93 0.00 89 1012.3
20260507045140 7 45 6.4 11.3 0.00 1.96 0.00 89 1012.3
20260507044945 7 22 6.4 11.3 0.00 1.96 0.00 89 1012.3
20260507044757 7 22 6.4 11.3 0.00 1.96 0.00 90 1012.2
20260507044618 7 112 6.4 9.7 0.00 2.01 0.00 90 1012.2
20260507044439 7 22 6.4 20.9 0.00 2.01 0.00 90 1012.2
20260507044300 7 68 6.4 20.9 0.00 2.01 0.00 90 1012.2
20260507044100 7 90 6.4 20.9 0.00 2.03 0.00 90 1012.0
20260507043901 7 45 8.0 16.1 0.00 2.03 0.00 90 1012.2
20260507043715 7 68 8.0 14.5 0.00 2.08 0.00 90 1012.1
20260507043649 7 22 8.0 14.5 0.00 2.08 0.00 90 1012.1
20260507043520 7 315 8.0 14.5 0.00 2.08 0.00 90 1012.0
20260507043323 7 0 9.7 16.1 0.00 2.08 0.00 90 1012.1
20260507043132 7 22 9.7 16.1 0.00 2.11 0.00 90 1012.0
20260507042933 7 0 8.0 14.5 0.00 2.11 0.00 90 1012.0
20260507042755 7 22 8.0 14.5 0.00 2.11 0.00 90 1011.9
20260507042600 7 0 6.4 14.5 0.00 2.16 0.00 90 1011.9
20260507042408 7 22 6.4 14.5 0.00 2.16 0.00 90 1012.0
20260507042215 7 45 4.8 11.3 0.00 2.16 0.00 90 1012.0
20260507042019 7 68 4.8 11.3 0.00 2.21 0.00 90 1012.1
20260507041926 7 90 4.8 11.3 0.00 2.21 0.00 90 1012.0
20260507041835 7 292 4.8 11.3 0.00 2.21 0.00 91 1012.1
20260507041637 7 68 4.8 9.7 0.00 2.21 0.00 90 1012.1
20260507041455 7 22 4.8 11.3 0.00 2.24 0.00 91 1012.0
20260507041315 7 45 4.8 11.3 0.00 2.24 0.00 91 1012.0
20260507041133 7 68 4.8 11.3 0.00 2.24 0.00 91 1012.0
20260507040935 7 22 4.8 9.7 0.00 2.29 0.00 91 1012.0
20260507040740 7 45 3.2 8.0 0.00 2.29 0.00 91 1012.0
20260507040600 7 22 3.2 8.0 0.00 2.29 0.00 91 1012.0
20260507040405 7 68 3.2 8.0 0.00 2.31 0.00 91 1011.9
20260507040230 7 45 3.2 8.0 0.00 2.31 0.00 90 1011.8
20260507040057 7 45 3.2 8.0 0.00 2.31 0.00 90 1011.9
20260507040045 7 45 3.2 8.0 0.00 2.31 0.00 90 1011.9
20260507035900 7 90 4.8 6.4 0.00 2.36 0.00 90 1011.9
20260507035720 7 90 4.8 8.0 0.00 2.36 0.00 90 1011.9
20260507035537 7 90 4.8 6.4 0.00 2.36 0.00 90 1011.8
20260507035350 7 90 6.4 9.7 0.00 2.39 0.00 90 1011.7
20260507035200 7 45 6.4 12.9 0.00 2.39 0.00 90 1011.6
20260507035005 7 22 6.4 12.9 0.00 2.39 0.00 90 1011.5
20260507034804 7 90 4.8 9.7 0.00 2.44 0.00 90 1011.6
20260507034628 7 45 4.8 9.7 0.00 2.44 0.00 90 1011.6
20260507034515 7 22 4.8 9.7 0.00 2.44 0.00 90 1011.6
20260507034450 7 45 4.8 8.0 0.00 2.44 0.00 90 1011.5
20260507034305 7 45 3.2 8.0 0.00 2.49 0.00 90 1011.6
20260507034128 7 45 3.2 16.1 0.00 2.49 0.00 90 1011.6
20260507033940 7 45 4.8 16.1 0.00 2.49 0.00 90 1011.5
20260507033755 7 45 4.8 16.1 0.00 2.49 0.00 90 1011.6
20260507033615 7 68 4.8 8.0 0.00 2.49 0.00 90 1011.6
20260507033425 7 45 4.8 9.7 0.00 2.49 0.00 90 1011.6
20260507033245 7 90 6.4 12.9 0.00 2.49 0.00 90 1011.6
20260507033049 7 68 6.4 12.9 0.00 2.49 0.00 90 1011.5
20260507032900 7 45 8.0 12.9 0.00 2.49 0.00 91 1011.5
20260507032854 7 45 6.4 12.9 0.00 2.51 0.00 91 1011.5
20260507032705 7 68 8.0 14.5 0.00 2.51 0.00 91 1011.5
20260507032509 7 22 8.0 14.5 0.00 2.51 0.00 90 1011.5
20260507032325 7 68 9.7 14.5 0.00 2.57 0.00 90 1011.5
20260507032129 7 22 9.7 11.3 0.00 2.57 0.00 91 1011.6
20260507031929 7 68 8.0 16.1 0.00 2.57 0.00 91 1011.6
20260507031753 7 68 8.0 19.3 0.00 2.57 0.00 91 1011.6
20260507031555 7 68 8.0 19.3 0.00 2.57 0.00 91 1011.5
20260507031415 7 68 6.4 17.7 0.00 2.57 0.00 90 1011.4
20260507031225 7 22 6.4 20.9 0.00 2.57 0.00 90 1011.5
20260507031040 7 68 8.0 20.9 0.00 2.59 0.00 91 1011.4
20260507031021 7 68 8.0 20.9 0.00 2.59 0.00 91 1011.3
20260507030900 7 112 8.0 20.9 0.00 2.59 0.00 90 1011.4
20260507030712 7 68 8.0 17.7 0.00 2.59 0.00 91 1011.4
20260507030525 7 68 8.0 17.7 0.00 2.59 0.00 91 1011.4
20260507030345 7 90 8.0 17.7 0.00 2.59 0.00 90 1011.4
20260507030148 7 22 6.4 11.3 0.00 2.59 0.00 91 1011.4
20260507030000 7 68 6.4 17.7 0.00 2.64 0.00 91 1011.5
20260507025805 7 90 8.0 17.7 0.00 2.64 0.00 91 1011.4
20260507025620 7 22 6.4 17.7 0.00 2.64 0.00 91 1011.4
20260507025508 7 45 6.4 12.9 0.00 2.64 0.00 91 1011.4
20260507025425 7 68 6.4 12.9 0.00 2.64 0.00 91 1011.4
20260507025238 7 22 6.4 9.7 0.00 2.64 0.00 91 1011.4
20260507025057 7 22 6.4 9.7 0.00 2.64 0.00 91 1011.4
20260507024858 7 22 6.4 9.7 0.00 2.64 0.00 91 1011.4
20260507024712 7 315 8.0 11.3 0.00 2.64 0.00 91 1011.4
20260507024525 7 22 9.7 16.1 0.00 2.64 0.00 91 1011.3
20260507024328 7 22 8.0 16.1 0.00 2.69 0.00 91 1011.3
20260507024142 7 68 8.0 17.7 0.00 2.69 0.00 91 1011.2
20260507024000 7 68 6.4 17.7 0.00 2.69 0.00 91 1011.2
20260507023809 7 22 6.4 17.7 0.00 2.69 0.00 91 1011.2
20260507023642 7 68 6.4 12.9 0.00 2.69 0.00 91 1011.2
20260507023608 7 68 4.8 12.9 0.00 2.69 0.00 91 1011.3
20260507023417 7 90 4.8 11.3 0.00 2.69 0.00 91 1011.2
20260507023225 7 338 6.4 16.1 0.00 2.69 0.00 91 1011.2
20260507023044 7 22 6.4 16.1 0.00 2.69 0.00 91 1011.2
20260507022900 7 68 6.4 16.1 0.00 2.69 0.00 91 1011.2
20260507022709 7 45 4.8 9.7 0.00 2.69 0.00 91 1011.3
20260507022520 7 90 4.8 9.7 0.00 2.69 0.00 91 1011.1
20260507022325 7 112 4.8 8.0 0.00 2.69 0.00 91 1011.2
20260507022140 7 45 4.8 9.7 0.00 2.69 0.00 91 1011.2
20260507021955 7 45 4.8 9.7 0.00 2.69 0.00 91 1011.2
20260507021831 7 90 4.8 14.5 0.00 2.69 0.00 91 1011.2
20260507021805 7 68 4.8 14.5 0.00 2.69 0.00 91 1011.2
20260507021623 7 22 4.8 14.5 0.00 2.69 0.00 91 1011.2
20260507021429 7 45 4.8 14.5 0.00 2.72 0.00 91 1011.2
20260507021240 7 22 4.8 9.7 0.00 2.72 0.00 91 1011.2
20260507021048 7 22 4.8 9.7 0.00 2.72 0.00 91 1011.2
20260507020900 7 292 6.4 9.7 0.00 2.72 0.00 91 1011.1
20260507020700 7 45 6.4 11.3 0.00 2.72 0.00 91 1011.2
20260507020514 7 22 6.4 16.1 0.00 2.72 0.00 91 1011.0
20260507020323 7 45 4.8 16.1 0.00 2.72 0.00 91 1011.0
20260507020203 7 90 4.8 16.1 0.00 2.72 0.00 91 1010.9
20260507020125 7 68 4.8 16.1 0.00 2.72 0.00 91 1010.9
20260507015929 7 45 4.8 14.5 0.00 2.72 0.00 91 1010.9
20260507015740 7 22 4.8 14.5 0.00 2.72 0.00 91 1011.0
20260507015540 7 68 4.8 8.0 0.00 2.72 0.00 91 1011.1
20260507015345 7 22 6.4 11.3 0.00 2.72 0.00 91 1011.0
20260507015145 7 45 6.4 11.3 0.00 2.72 0.00 91 1011.0
20260507014946 7 0 4.8 11.3 0.00 2.77 0.00 91 1010.9
20260507014749 7 22 4.8 9.7 0.00 2.77 0.00 91 1011.0
20260507014651 7 22 4.8 9.7 0.00 2.77 0.00 91 1011.0
20260507014555 7 68 3.2 9.7 0.00 2.77 0.00 91 1011.0
20260507014406 7 68 4.8 9.7 0.00 2.77 0.00 91 1011.1
20260507014210 7 45 4.8 9.7 0.00 2.77 0.00 91 1011.2
20260507014015 7 45 3.2 8.0 0.00 2.77 0.00 91 1011.1
20260507013829 7 45 4.8 9.7 0.00 2.77 0.00 90 1011.2
20260507013639 7 68 4.8 9.7 0.00 2.77 0.00 90 1011.1
20260507013504 7 22 4.8 9.7 0.00 2.77 0.00 90 1011.2
20260507013323 7 0 4.8 9.7 0.00 2.77 0.00 90 1011.1
20260507013140 7 45 6.4 9.7 0.00 2.77 0.00 90 1011.3
20260507012955 7 45 4.8 11.3 0.00 2.77 0.00 90 1011.2
20260507012915 7 22 4.8 11.3 0.00 2.77 0.00 90 1011.1
20260507012757 7 22 4.8 11.3 0.00 2.77 0.00 90 1011.2
20260507012608 7 90 4.8 11.3 0.00 2.77 0.00 90 1011.2
20260507012409 7 68 4.8 9.7 0.00 2.77 0.00 90 1011.2
20260507012225 7 68 4.8 8.0 0.00 2.77 0.00 90 1011.1
20260507012035 7 22 3.2 8.0 0.00 2.77 0.00 90 1011.1
20260507011840 7 22 4.8 8.0 0.00 2.77 0.00 90 1011.1
20260507011641 7 292 4.8 14.5 0.00 2.77 0.00 90 1011.2
20260507011500 7 22 4.8 14.5 0.00 2.77 0.00 90 1011.0
20260507011404 7 22 6.4 14.5 0.00 2.77 0.00 90 1011.1
20260507011315 7 45 4.8 14.5 0.00 2.77 0.00 90 1011.1
20260507011129 7 45 4.8 9.7 0.00 2.77 0.00 90 1011.0
20260507010943 7 45 6.4 11.3 0.00 2.77 0.00 90 1011.0
20260507010745 7 22 6.4 11.3 0.00 2.77 0.00 90 1011.0
20260507010555 7 22 6.4 11.3 0.00 2.77 0.00 90 1011.1
20260507010418 7 22 4.8 9.7 0.00 2.77 0.00 90 1011.0
20260507010234 7 68 4.8 9.7 0.00 2.77 0.00 90 1010.9
20260507010055 7 112 3.2 9.7 0.00 2.77 0.00 90 1010.9
20260507005859 7 68 4.8 9.7 0.00 2.77 0.00 90 1010.9
20260507005811 7 22 4.8 9.7 0.00 2.77 0.00 90 1010.8
20260507005700 7 338 4.8 9.7 0.00 2.77 0.00 91 1010.9
20260507005505 7 68 4.8 8.0 0.00 2.77 0.00 91 1010.8
20260507005315 7 22 4.8 9.7 0.00 2.77 0.00 91 1010.8
20260507004952 7 45 6.4 9.7 0.00 2.77 0.00 91 1010.7
20260507004753 7 22 4.8 9.7 0.00 2.77 0.00 91 1010.8
20260507004600 7 45 4.8 9.7 0.00 2.77 0.00 91 1010.8
20260507004414 7 22 6.4 9.7 0.00 2.77 0.00 91 1010.7
20260507004240 7 22 6.4 9.7 0.00 2.77 0.00 90 1010.8
20260507004049 7 22 6.4 12.9 0.00 2.77 0.00 90 1010.7
20260507004045 7 68 6.4 12.9 0.00 2.77 0.00 90 1010.7
20260507003904 7 45 6.4 12.9 0.00 2.77 0.00 90 1010.7
20260507003726 7 22 8.0 12.9 0.00 2.77 0.00 90 1010.7
20260507003530 7 22 8.0 11.3 0.00 2.77 0.00 90 1010.7
20260507003345 7 68 8.0 12.9 0.00 2.77 0.00 90 1010.6
20260507003149 7 45 8.0 16.1 0.00 2.77 0.00 91 1010.6
20260507003005 7 22 8.0 16.1 0.00 2.77 0.00 90 1010.5
20260507002818 7 0 6.4 14.5 0.00 2.77 0.00 91 1010.5
20260507002620 7 45 6.4 12.9 0.00 2.77 0.00 91 1010.5
20260507002422 7 22 6.4 12.9 0.00 2.77 0.00 91 1010.5
20260507002420 7 45 6.4 12.9 0.00 2.77 0.00 91 1010.5
20260507002238 7 68 6.4 12.9 0.00 2.77 0.00 91 1010.5
20260507002100 7 22 6.4 12.9 0.00 2.77 0.00 91 1010.5
20260507001915 7 68 8.0 17.7 0.00 2.77 0.00 90 1010.5
20260507001720 7 0 8.0 17.7 0.00 2.77 0.00 90 1010.5
20260507001525 7 68 8.0 20.9 0.00 2.77 0.00 90 1010.5
20260507001326 7 45 8.0 20.9 0.00 2.77 0.00 90 1010.5
20260507001144 7 68 9.7 20.9 0.00 2.77 0.00 90 1010.5
20260507001005 7 22 9.7 12.9 0.00 2.77 0.00 90 1010.5
20260507000805 7 22 11.3 12.9 0.00 2.77 0.00 90 1010.6
20260507000740 7 22 11.3 12.9 0.00 2.77 0.00 90 1010.5
20260507000610 7 45 11.3 12.9 0.00 2.77 0.00 91 1010.5
20260507000415 7 45 11.3 33.8 0.00 2.77 0.00 91 1010.6
20260507000227 7 22 12.9 33.8 0.00 2.77 0.00 91 1010.6
20260507000035 7 45 12.9 33.8 0.00 2.77 0.00 91 1010.6
20260506235840 7 112 9.7 27.4 0.00 2.77 0.00 91 1010.5
20260506235658 7 112 9.7 27.4 0.00 2.77 0.00 92 1010.5
20260506235500 7 45 9.7 24.1 0.00 2.77 0.00 92 1010.4
20260506235318 7 22 6.4 24.1 0.00 2.77 0.00 92 1010.4
20260506235125 7 68 6.4 16.1 0.00 2.77 0.00 92 1010.5
20260506235022 7 112 4.8 16.1 0.00 2.77 0.00 93 1010.4
20260506234938 7 338 4.8 9.7 0.00 2.77 0.00 92 1010.4
20260506234745 7 22 4.8 9.7 0.00 2.77 0.00 92 1010.5
20260506234600 7 45 4.8 11.3 0.00 2.77 0.00 92 1010.4
20260506234402 7 45 4.8 11.3 0.00 2.77 0.00 93 1010.4
20260506234215 7 22 4.8 11.3 0.00 2.77 0.00 92 1010.5
20260506234038 7 22 4.8 11.3 0.00 2.77 0.00 92 1010.5
20260506233844 7 22 4.8 8.0 0.00 2.77 0.00 92 1010.5
20260506233655 8 22 6.4 9.7 0.00 2.77 0.00 92 1010.5
20260506233508 8 22 6.4 12.9 0.00 2.77 0.00 92 1010.6
20260506233312 8 68 6.4 12.9 0.00 2.77 0.00 92 1010.5
20260506233217 8 68 6.4 14.5 0.00 2.77 0.00 92 1010.4
20260506233115 8 22 6.4 14.5 0.00 2.77 0.00 92 1010.5
20260506232935 8 45 4.8 14.5 0.00 2.77 0.00 92 1010.4
20260506232738 8 22 4.8 12.9 0.00 2.77 0.00 92 1010.4
20260506232558 8 22 4.8 12.9 0.00 2.77 0.00 92 1010.4
20260506232418 8 22 6.4 12.9 0.00 2.77 0.00 92 1010.5
20260506232225 8 68 6.4 12.9 0.00 2.77 0.00 92 1010.4
20260506232040 8 22 8.0 11.3 0.00 2.77 0.00 92 1010.5
20260506231844 8 22 9.7 17.7 0.00 2.77 0.00 92 1010.4
20260506231700 8 68 9.7 17.7 0.00 2.77 0.00 92 1010.4
20260506231530 8 68 9.7 17.7 0.00 2.77 0.00 91 1010.3
20260506231515 8 68 9.7 17.7 0.00 2.77 0.00 91 1010.3
20260506231335 8 22 9.7 17.7 0.00 2.77 0.00 92 1010.3
20260506231145 8 45 8.0 20.9 0.00 2.77 0.00 91 1010.4
20260506231005 8 112 6.4 20.9 0.00 2.77 0.00 92 1010.4
20260506230807 8 68 4.8 14.5 0.00 2.77 0.00 92 1010.4
20260506230610 8 22 4.8 14.5 0.00 2.77 0.00 92 1010.4
20260506230431 8 22 4.8 14.5 0.00 2.77 0.00 92 1010.4
20260506230238 8 45 4.8 9.7 0.00 2.77 0.00 92 1010.3
20260506230100 8 68 4.8 9.7 0.00 2.77 0.00 92 1010.2
20260506230022 8 90 4.8 9.7 0.00 2.77 0.00 92 1010.3
20260506225915 8 45 4.8 8.0 0.00 2.77 0.00 92 1010.3
20260506225735 8 45 4.8 8.0 0.00 2.77 0.00 92 1010.3
20260506225547 8 90 4.8 8.0 0.00 2.77 0.00 92 1010.2
20260506225348 8 22 4.8 9.7 0.00 2.77 0.00 92 1010.2
20260506225158 8 22 4.8 9.7 0.00 2.77 0.00 92 1010.1
20260506225003 8 22 6.4 8.0 0.00 2.77 0.00 92 1010.1
20260506224822 8 22 6.4 9.7 0.00 2.77 0.00 92 1010.1
20260506224645 8 90 6.4 11.3 0.00 2.77 0.00 92 1010.1
20260506224442 9 45 6.4 16.1 0.00 2.77 0.00 92 1010.0
20260506224248 9 68 8.0 16.1 0.00 2.77 0.00 92 1009.9
20260506224237 9 45 8.0 16.1 0.00 2.77 0.00 91 1009.9
20260506224108 9 22 6.4 16.1 0.00 2.77 0.00 92 1009.9
20260506223915 9 68 6.4 11.3 0.00 2.77 0.00 92 1010.0
20260506223735 9 0 4.8 12.9 0.00 2.77 0.00 92 1009.8
20260506223555 9 68 4.8 12.9 0.00 2.77 0.00 92 1009.9
20260506223351 9 292 4.8 12.9 0.00 2.77 0.00 92 1009.8
20260506223210 9 225 3.2 11.3 0.00 2.77 0.00 92 1009.8
20260506223015 10 225 4.8 11.3 0.00 2.77 0.00 92 1009.8
20260506222819 10 22 4.8 11.3 0.00 2.77 0.00 92 1009.8
20260506222630 10 22 4.8 8.0 0.00 2.77 0.00 92 1009.8
20260506222600 10 22 4.8 8.0 0.00 2.77 0.00 92 1009.9
20260506222435 10 22 4.8 12.9 0.00 2.77 0.00 92 1009.8
20260506222235 10 22 4.8 12.9 0.00 2.77 0.00 92 1009.9
20260506222045 10 22 4.8 12.9 0.00 2.77 0.00 92 1009.8
20260506221855 10 45 4.8 11.3 0.00 2.77 0.00 92 1009.9
20260506221715 10 22 3.2 8.0 0.00 2.77 0.00 92 1009.8
20260506221538 10 22 3.2 8.0 0.00 2.77 0.00 92 1009.8
20260506221340 10 22 3.2 8.0 0.00 2.77 0.00 92 1009.8
20260506221145 10 22 3.2 8.0 0.00 2.77 0.00 92 1009.7
20260506221005 10 45 4.8 8.0 0.00 2.77 0.00 92 1009.7
20260506220813 10 112 4.8 8.0 0.00 2.77 0.00 92 1009.7
20260506220725 10 112 6.4 8.0 0.00 2.77 0.00 92 1009.8
20260506220628 10 0 6.4 9.7 0.00 2.77 0.00 92 1009.8
20260506220448 10 292 6.4 12.9 0.00 2.77 0.00 92 1009.7
20260506220258 10 68 6.4 12.9 0.00 2.77 0.00 92 1009.8
20260506220120 10 45 6.4 14.5 0.00 2.77 0.00 92 1009.7
20260506215925 10 22 6.4 14.5 0.00 2.77 2.77 92 1009.7
20260506215734 10 22 6.4 14.5 0.00 2.77 2.77 92 1009.7
20260506215545 10 45 4.8 9.7 0.00 2.77 2.77 92 1009.7
20260506215345 10 22 4.8 11.3 0.00 2.77 2.77 92 1009.8
20260506215200 10 22 4.8 11.3 0.00 2.77 2.77 92 1009.8
20260506215018 10 22 4.8 11.3 0.00 2.77 2.77 92 1009.9
20260506214836 10 22 4.8 11.3 0.00 2.77 2.77 92 1009.8
20260506214658 10 45 3.2 6.4 0.00 2.77 2.77 92 1009.9
20260506214507 10 22 3.2 6.4 0.00 2.77 2.77 92 1009.8
20260506214328 10 22 3.2 8.0 0.00 2.77 2.77 92 1009.8
20260506214134 10 45 3.2 9.7 0.00 2.77 2.77 92 1009.8
20260506213935 10 45 3.2 9.7 0.00 2.77 2.77 92 1009.8
20260506213758 10 22 3.2 9.7 0.00 2.77 2.77 92 1009.7
20260506213617 10 22 3.2 9.7 0.00 2.77 2.77 92 1009.7
20260506213435 10 22 4.8 9.7 0.00 2.77 2.77 92 1009.6
20260506213255 10 45 4.8 9.7 0.00 2.77 2.77 92 1009.6
20260506213108 10 22 4.8 9.7 0.00 2.77 2.77 92 1009.6
20260506212915 10 22 6.4 9.7 0.00 2.77 2.77 92 1009.6
20260506212715 10 68 4.8 12.9 0.00 2.77 2.77 92 1009.5
20260506212520 10 68 4.8 12.9 0.00 2.77 2.77 92 1009.6
20260506212345 10 22 4.8 12.9 0.00 2.77 2.77 92 1009.5
20260506212205 10 45 3.2 8.0 0.00 2.77 2.77 92 1009.6
20260506212023 10 45 3.2 8.0 0.00 2.77 2.77 92 1009.5
20260506211838 10 22 3.2 8.0 0.00 2.77 2.77 92 1009.6
20260506211643 10 22 3.2 8.0 0.00 2.77 2.77 92 1009.6
20260506211444 10 68 3.2 8.0 0.00 2.77 2.77 92 1009.5
20260506211432 10 68 3.2 8.0 0.00 2.77 2.77 92 1009.6
20260506211245 10 68 3.2 9.7 0.00 2.77 2.77 92 1009.5
20260506211045 10 0 3.2 11.3 0.00 2.77 2.77 92 1009.4
20260506210855 10 22 3.2 11.3 0.00 2.77 2.77 92 1009.5
20260506210717 10 22 4.8 11.3 0.00 2.77 2.77 92 1009.5
20260506210530 10 0 3.2 6.4 0.00 2.77 2.77 91 1009.6
20260506210330 10 45 4.8 9.7 0.00 2.77 2.77 91 1009.5
20260506210137 10 45 6.4 12.9 0.00 2.77 2.77 91 1009.4
20260506205949 10 90 6.4 12.9 0.00 2.77 2.77 91 1009.4
20260506205750 10 338 6.4 11.3 0.00 2.77 2.77 91 1009.5
20260506205555 10 45 6.4 11.3 0.00 2.77 2.77 91 1009.4
20260506205533 10 68 6.4 11.3 0.00 2.77 2.77 91 1009.4
20260506205410 10 68 6.4 11.3 0.00 2.77 2.77 91 1009.5
20260506205210 10 338 6.4 9.7 0.00 2.77 2.77 91 1009.5
20260506205021 10 45 4.8 11.3 0.00 2.77 2.77 92 1009.4
20260506204835 10 68 6.4 11.3 0.00 2.77 2.77 91 1009.3
20260506204650 10 68 6.4 11.3 0.00 2.77 2.77 92 1009.3
20260506204450 10 22 4.8 9.7 0.00 2.77 2.77 92 1009.3
20260506204255 10 68 4.8 11.3 0.00 2.77 2.77 92 1009.2
20260506204115 10 22 6.4 11.3 0.00 2.77 2.77 92 1009.2
20260506203935 10 45 6.4 11.3 0.00 2.77 2.77 93 1009.2
20260506203823 10 22 6.4 14.5 0.00 2.77 2.77 93 1009.2
20260506203745 10 68 6.4 14.5 0.00 2.77 2.77 93 1009.2
20260506203603 10 90 6.4 14.5 0.00 2.77 2.77 93 1009.2
20260506203428 10 90 8.0 14.5 0.00 2.77 2.77 93 1009.2
20260506203231 10 68 6.4 11.3 0.00 2.77 2.77 94 1009.2
20260506203050 10 68 6.4 11.3 0.00 2.77 2.77 94 1009.3
20260506202848 10 45 6.4 11.3 0.00 2.77 2.77 94 1009.3
20260506202710 10 22 6.4 11.3 0.00 2.77 2.77 94 1009.3
20260506202512 10 22 4.8 11.3 0.00 2.77 2.77 94 1009.3
20260506202335 10 22 4.8 8.0 0.00 2.77 2.77 94 1009.2
20260506202242 10 22 3.2 9.7 0.00 2.77 2.77 94 1009.4
20260506202135 10 22 4.8 9.7 0.00 2.77 2.77 94 1009.3
20260506201950 10 315 3.2 9.7 0.00 2.77 2.77 94 1009.3
20260506201756 10 45 3.2 9.7 0.00 2.77 2.77 94 1009.3
20260506201612 10 45 3.2 8.0 0.00 2.77 2.77 94 1009.4
20260506201416 10 22 3.2 6.4 0.00 2.77 2.77 94 1009.4
20260506201225 10 0 3.2 11.3 0.00 2.77 2.77 94 1009.4
20260506201045 10 0 3.2 11.3 0.00 2.77 2.77 94 1009.3
20260506200857 10 0 3.2 11.3 0.00 2.77 2.77 94 1009.3
20260506200710 10 22 1.6 8.0 0.00 2.77 2.77 94 1009.3
20260506200513 10 22 3.2 8.0 0.00 2.77 2.77 94 1009.3
20260506200338 10 22 1.6 8.0 0.00 2.77 2.77 94 1009.3
20260506200145 10 22 3.2 9.7 0.00 2.77 2.77 94 1009.3
20260506200005 10 22 3.2 9.7 0.00 2.77 2.77 94 1009.3
20260506195830 10 22 3.2 9.7 0.00 2.77 2.77 94 1009.2
20260506195638 10 22 4.8 14.5 0.00 2.77 2.77 94 1009.3
20260506195438 10 22 4.8 14.5 0.00 2.77 2.77 94 1009.2
20260506195248 10 22 4.8 14.5 0.00 2.77 2.77 94 1009.2
20260506195110 10 22 4.8 14.5 0.00 2.77 2.77 94 1009.2
20260506194915 10 22 3.2 6.4 0.00 2.77 2.77 94 1009.2
20260506194725 10 22 3.2 6.4 0.00 2.77 2.77 94 1009.2
20260506194622 10 22 3.2 8.0 0.00 2.77 2.77 94 1009.2
20260506194548 10 22 3.2 8.0 0.00 2.77 2.77 94 1009.2
20260506194355 10 22 3.2 8.0 0.00 2.77 2.77 94 1009.1
20260506194205 10 22 3.2 6.4 0.00 2.77 2.77 93 1009.1
20260506194012 10 22 3.2 6.4 0.00 2.77 2.77 93 1009.1
20260506193818 10 22 3.2 6.4 0.00 2.77 2.77 93 1009.0
20260506193635 10 22 3.2 8.0 0.00 2.77 2.77 93 1009.1
20260506193450 10 22 1.6 8.0 0.00 2.77 2.77 93 1009.2
20260506193255 10 22 1.6 8.0 0.00 2.77 2.77 93 1009.1
20260506193115 10 45 1.6 3.2 0.00 2.77 2.77 93 1009.2
20260506192938 10 45 1.6 3.2 0.00 2.77 2.77 93 1009.1
20260506192924 10 45 3.2 3.2 0.00 2.77 2.77 93 1009.2
20260506192752 10 45 3.2 3.2 0.00 2.77 2.77 92 1009.2
20260506192558 10 45 3.2 12.9 0.00 2.77 2.77 93 1009.1
20260506192416 10 45 3.2 12.9 0.00 2.77 2.77 92 1009.1
20260506192235 10 45 3.2 12.9 0.00 2.77 2.77 92 1009.1
20260506192048 10 22 3.2 9.7 0.00 2.77 2.77 93 1009.1
20260506191855 10 22 3.2 9.7 0.00 2.77 2.77 92 1009.1
20260506191718 10 68 4.8 9.7 0.00 2.77 2.77 93 1009.1
20260506191525 10 22 3.2 9.7 0.00 2.77 2.77 93 1009.1
20260506191330 10 22 3.2 9.7 0.00 2.77 2.77 92 1009.0
20260506191130 10 45 3.2 9.7 0.00 2.77 2.77 92 1009.1
20260506191041 10 68 3.2 9.7 0.00 2.77 2.77 93 1009.0
20260506190935 10 45 3.2 6.4 0.00 2.77 2.77 93 1009.0
20260506190755 10 45 3.2 6.4 0.00 2.77 2.77 93 1009.0
20260506190615 10 45 3.2 8.0 0.00 2.77 2.77 93 1009.0
20260506190435 10 45 3.2 8.0 0.00 2.77 2.77 93 1009.0
20260506190235 10 45 3.2 8.0 0.00 2.77 2.77 93 1009.0
20260506190048 10 22 1.6 8.0 0.00 2.77 2.77 92 1009.0
20260506185858 10 22 1.6 8.0 0.00 2.77 2.77 92 1008.9
20260506185719 10 22 1.6 8.0 0.00 2.77 2.77 92 1008.9
20260506185541 10 22 1.6 8.0 0.00 2.77 2.77 92 1008.9
20260506185501 10 90 1.6 3.2 0.00 2.77 2.77 92 1008.9
20260506185405 10 90 1.6 3.2 0.00 2.77 2.77 92 1008.8
20260506185218 10 112 1.6 3.2 0.00 2.77 2.77 92 1008.8
20260506185037 10 22 3.2 12.9 0.00 2.77 2.77 92 1008.8
20260506184845 10 22 3.2 12.9 0.00 2.77 2.77 92 1008.7
20260506184710 10 22 3.2 6.4 0.00 2.77 2.77 92 1008.6
20260506184513 10 22 3.2 9.7 0.00 2.77 2.77 92 1008.6
20260506184325 10 68 3.2 9.7 0.00 2.77 2.77 93 1008.6
20260506184143 10 68 3.2 9.7 0.00 2.77 2.77 92 1008.5
20260506183955 10 22 3.2 6.4 0.00 2.77 2.77 92 1008.5
20260506183758 11 0 4.8 8.0 0.00 2.77 2.77 93 1008.5
20260506183637 11 45 4.8 8.0 0.00 2.77 2.77 92 1008.4
20260506183610 11 45 4.8 8.0 0.00 2.77 2.77 92 1008.3
20260506183425 11 68 4.8 9.7 0.00 2.77 2.77 92 1008.3
20260506183238 11 22 4.8 9.7 0.00 2.77 2.77 92 1008.3
20260506183055 11 45 4.8 9.7 0.00 2.77 2.77 92 1008.3
20260506182915 11 68 3.2 8.0 0.00 2.77 2.77 92 1008.4
20260506182738 11 22 3.2 6.4 0.00 2.77 2.77 92 1008.4
20260506182558 11 22 3.2 8.0 0.00 2.77 2.77 92 1008.4
20260506182405 11 45 3.2 9.7 0.00 2.77 2.77 91 1008.4
20260506182205 11 68 3.2 9.7 0.00 2.77 2.77 91 1008.4
20260506182010 11 45 3.2 9.7 0.00 2.77 2.77 91 1008.4
20260506181911 11 45 3.2 11.3 0.00 2.77 2.77 91 1008.3
20260506181815 11 68 3.2 11.3 0.00 2.77 2.77 90 1008.4
20260506181634 11 68 3.2 11.3 0.00 2.77 2.77 90 1008.5
20260506181448 11 0 3.2 8.0 0.00 2.77 2.77 90 1008.5
20260506181305 11 45 3.2 8.0 0.00 2.77 2.77 90 1008.5
20260506181125 11 45 3.2 8.0 0.00 2.77 2.77 91 1008.5
20260506180938 11 45 3.2 9.7 0.00 2.77 2.77 91 1008.5
20260506180755 11 45 3.2 9.7 0.00 2.77 2.77 91 1008.5
20260506180607 11 45 3.2 11.3 0.00 2.77 2.77 91 1008.5
20260506180415 11 68 4.8 11.3 0.00 2.77 2.77 91 1008.4
20260506180232 11 68 4.8 12.9 0.00 2.77 2.77 91 1008.3
20260506180035 11 45 4.8 12.9 0.00 2.77 2.77 92 1008.3
20260506175855 11 68 4.8 12.9 0.00 2.77 2.77 92 1008.4
20260506175712 11 338 4.8 11.3 0.00 2.77 2.77 92 1008.4
20260506175535 11 0 4.8 11.3 0.00 2.77 2.77 92 1008.4
20260506175345 11 0 6.4 11.3 0.00 2.77 2.77 91 1008.4
20260506175148 11 45 6.4 12.9 0.00 2.77 2.77 91 1008.3
20260506174958 11 112 6.4 12.9 0.00 2.77 2.77 92 1008.3
20260506174807 11 22 6.4 12.9 0.00 2.77 2.77 91 1008.2
20260506174625 11 22 6.4 9.7 0.00 2.77 2.77 91 1008.1
20260506174430 11 45 4.8 9.7 0.00 2.77 2.77 91 1008.2
20260506174250 11 22 4.8 8.0 0.00 2.77 2.77 91 1008.1
20260506174100 11 68 4.8 8.0 0.00 2.77 2.77 91 1008.1
20260506173924 12 22 3.2 8.0 0.00 2.77 2.77 91 1008.1
20260506173728 12 45 4.8 9.7 0.00 2.77 2.77 91 1008.1
20260506173550 12 45 4.8 9.7 0.00 2.77 2.77 91 1008.1
20260506173405 12 68 4.8 9.7 0.00 2.77 2.77 91 1008.1
20260506173218 12 45 4.8 9.7 0.00 2.77 2.77 91 1008.1
20260506173036 12 22 4.8 9.7 0.00 2.77 2.77 91 1008.0
20260506172855 12 68 6.4 9.7 0.00 2.77 2.77 91 1008.0
20260506172713 12 45 4.8 11.3 0.00 2.77 2.77 91 1007.9
20260506172534 12 45 4.8 11.3 0.00 2.77 2.77 91 1008.0
20260506172335 12 22 4.8 14.5 0.00 2.77 2.77 91 1008.0
20260506172145 12 68 4.8 14.5 0.00 2.77 2.77 92 1008.0
20260506172010 12 22 4.8 14.5 0.00 2.77 2.77 91 1008.0
20260506171820 12 45 4.8 8.0 0.00 2.77 2.77 91 1008.0
20260506171643 12 45 4.8 9.7 0.00 2.77 2.77 92 1008.0
20260506171505 12 0 4.8 9.7 0.00 2.77 2.77 92 1008.0
20260506171342 12 112 4.8 9.7 0.00 2.77 2.77 92 1008.0
20260506171324 12 22 4.8 9.7 0.00 2.77 2.77 92 1007.9
20260506171127 12 45 4.8 9.7 0.00 2.77 2.77 92 1008.0
20260506170938 12 68 3.2 8.0 0.00 2.77 2.77 91 1008.0
20260506170738 12 45 3.2 8.0 0.00 2.77 2.77 91 1008.0
20260506170555 12 22 3.2 8.0 0.00 2.77 2.77 91 1008.0
20260506170415 12 45 3.2 8.0 0.00 2.77 2.77 91 1007.9
20260506170218 12 45 3.2 8.0 0.00 2.77 2.77 91 1008.0
20260506170035 12 45 3.2 8.0 0.00 2.77 2.77 91 1008.0
20260506165850 12 22 3.2 6.4 0.00 2.77 2.77 91 1008.0
20260506165822 12 22 3.2 9.7 0.00 2.77 2.77 91 1007.9
20260506165710 12 90 3.2 9.7 0.00 2.77 2.77 91 1008.0
20260506165523 12 68 3.2 9.7 0.00 2.77 2.77 92 1007.9
20260506165325 12 68 3.2 9.7 0.00 2.77 2.77 91 1007.9
20260506165138 12 22 3.2 8.0 0.00 2.77 2.77 91 1007.9
20260506164938 12 45 3.2 12.9 0.00 2.77 2.77 91 1007.9
20260506164753 12 22 4.8 12.9 0.00 2.77 2.77 91 1007.8
20260506164605 13 45 4.8 9.7 0.00 2.77 2.77 90 1007.8
20260506164415 13 45 3.2 9.7 0.00 2.77 2.77 90 1007.9
20260506164213 13 45 3.2 9.7 0.00 2.77 2.77 90 1007.8
20260506164038 13 45 3.2 12.9 0.00 2.77 2.77 89 1007.9
20260506163958 13 68 3.2 12.9 0.00 2.77 2.77 89 1007.8
20260506163838 13 22 3.2 12.9 0.00 2.77 2.77 89 1007.8
20260506163645 13 45 3.2 12.9 0.00 2.77 2.77 88 1007.8
20260506163505 13 45 3.2 6.4 0.00 2.77 2.77 89 1007.7
20260506163325 13 22 3.2 8.0 0.00 2.77 2.77 89 1007.7
20260506163125 13 22 3.2 8.0 0.00 2.77 2.77 89 1007.8
20260506162945 13 22 3.2 8.0 0.00 2.77 2.77 88 1007.7
20260506162745 13 45 3.2 8.0 0.00 2.77 2.77 88 1007.8
20260506162605 13 22 3.2 8.0 0.00 2.77 2.77 89 1007.7
20260506162407 13 45 3.2 8.0 0.00 2.77 2.77 89 1007.7
20260506162210 13 22 3.2 8.0 0.00 2.77 2.77 89 1007.8
20260506162023 13 22 3.2 8.0 0.00 2.77 2.77 89 1007.7
20260506161830 13 22 3.2 8.0 0.00 2.77 2.77 88 1007.7
20260506161630 13 22 3.2 8.0 0.00 2.77 2.77 87 1007.7
20260506161435 13 22 3.2 11.3 0.00 2.77 2.77 87 1007.8
20260506161105 13 68 3.2 11.3 0.00 2.77 2.77 87 1007.9
20260506160903 13 68 3.2 8.0 0.00 2.77 2.77 87 1008.0
20260506160704 13 22 4.8 9.7 0.00 2.77 2.77 87 1007.9
20260506160611 13 22 4.8 9.7 0.00 2.77 2.77 87 1008.0
20260506160518 13 22 4.8 9.7 0.00 2.77 2.77 86 1007.9
20260506160326 13 90 4.8 11.3 0.00 2.77 2.77 86 1007.9
20260506160140 13 68 4.8 11.3 0.00 2.77 2.77 87 1007.9
20260506155955 13 22 4.8 12.9 0.00 2.77 2.77 87 1008.0
20260506155800 13 0 4.8 12.9 0.00 2.77 2.77 87 1008.0
20260506155612 13 45 3.2 11.3 0.00 2.77 2.77 87 1008.0
20260506155427 13 22 3.2 9.7 0.00 2.77 2.77 87 1008.0
20260506155245 13 45 4.8 9.7 0.00 2.77 2.77 88 1008.0
20260506155050 13 45 4.8 9.7 0.00 2.77 2.77 88 1008.0
20260506154901 13 338 4.8 8.0 0.00 2.77 2.77 88 1008.1
20260506154744 13 22 3.2 8.0 0.00 2.77 2.77 88 1008.0
20260506154713 13 22 3.2 8.0 0.00 2.77 2.77 89 1008.1
20260506154535 13 22 4.8 11.3 0.00 2.77 2.77 89 1008.1
20260506154335 13 22 4.8 11.3 0.00 2.77 2.77 89 1008.0
20260506154145 13 68 4.8 11.3 0.00 2.77 2.77 89 1008.0
20260506154008 13 45 3.2 9.7 0.00 2.77 2.77 90 1008.0
20260506153830 13 68 3.2 9.7 0.00 2.77 2.77 89 1008.0
20260506153650 13 22 3.2 11.3 0.00 2.77 2.77 88 1008.0